Find OV1-9

NORAD ID: 2610 Int'l Des: 1966-111 Owner: OAR Country: US operational
MEOELLIPTICALRETROGRADE

实时位置

正在加载3D地球...

关于 OV1-9

正在加载描述...

即将过境

Passes for default location (London). Set your location on the main map for personalized predictions.

高度历史

Loading altitude history...

两行轨道根数

1 2610U 66111A 26106.50009899 .00000401 00000-0 16097-3 0 9990
2 2610 99.0955 301.9542 2272180 111.6628 274.0597 10.39855903226624
Epoch: Apr 16, 2026 • Age: 23 hours

当前状态

高度 4134.7 km
速度 5.56 km/s
星下点 -40.46°S, 56.67°W
类型 other

Most Searched